Regional Weather Roundup
Issued by NWS

Home | Current Version | Previous Version | Text Only | Print | Product List | Glossary On
Versions: 1 2 3 4 5 6 7 8 9 10 11 12 13 14 15 16 17 18 19 20 21 22 23 24 25 26 27 28 29 30 31 32 33 34 35 36 37 38 39 40 41 42 43 44 45 46 47 48 49 50
000
ASUS45 KBOU 010410
RWRCO

WEATHER ROUNDUP FOR COLORADO
NATIONAL WEATHER SERVICE DENVER/BOULDER CO
1000 PM MDT FRI JUL 31 2015

NOTE: "FAIR" INDICATES FEW OR NO CLOUDS BELOW 12000 FEET WITH NO
SIGNIFICANT WEATHER AND/OR OBSTRUCTIONS TO VISIBILITY.

COZ001>005-013-030-031-010500-
...NORTHWEST COLORADO...

CITY           SKY/WX    TMP DP  RH WIND       PRES   REMARKS
CRAIG          PTCLDY    60  39  45 CALM      30.24R
HAYDEN         PTCLDY    66  28  24 SW9       30.26S
MEEKER         CLEAR     62  36  37 NE6       30.27R
MOUNT WERNER   NOT AVBL
STEAMBOAT SPGS PTCLDY    62  39  41 CALM      30.30R
WALDEN         CLEAR     55  39  54 E7        30.42R
$$

COZ006>008-011-010500-
...WEST CENTRAL VALLEYS...

CITY           SKY/WX    TMP DP  RH WIND       PRES   REMARKS
GRAND JUNCTION PTCLDY    80  42  25 SE9       30.14R
MONTROSE       MOCLDY    75  47  36 SE16      30.27R
EAGLE          PTCLDY    73  39  29 NE5       30.30R
RIFLE          PTCLDY    77  34  21 S9        30.19R
DELTA          MOCLDY    78  46  31 E5        30.23R
NUCLA          MOCLDY    72  46  40 E9        30.32R
$$

COZ017>023-064>068-010500-
...SOUTHWEST COLORADO...

CITY           SKY/WX    TMP DP  RH WIND       PRES   REMARKS
DURANGO        CLOUDY    65  54  67 CALM      30.38R
CORTEZ         MOCLDY    65  62  90 CALM      30.31R
PAGOSA SPRINGS CLOUDY    62  55  76 N6        30.46S
TELLURIDE      LGT RAIN  56  52  85 CALM      30.56S
WOLF CREEK PAS NOT AVBL
$$

COZ009-010-012-014-032>034-037-058>063-010500-
...CENTRAL COLORADO...

CITY           SKY/WX    TMP DP  RH WIND       PRES   REMARKS
ASPEN          MOCLDY    62  43  49 S8        30.39R
BUENA VISTA    PTCLDY    59  49  70 CALM      30.49R
COPPER MTN     CLOUDY    55  36  47 S14G20    30.76R
BERTHOUD PASS  FAIR      43  34  70 SE12G17   30.81R
COTTONWOOD PAS PTCLDY    57  46  67 N5        30.62R
GUNNISON       PTCLDY    63  46  55 CALM      30.47R
KREMMLING      PTCLDY    70  37  30 CALM      30.38R
LEADVILLE      MOCLDY    54  43  66 S7        30.60R
MONARCH PASS   PTCLDY    48  39  71 S7        30.87R
SALIDA         NOT AVBL
SUNLIGHT       PTCLDY    59  36  41 CALM      30.67R
WILKERSON PASS CLOUDY    48  43  81 S8        30.74R
$$

COZ069>075-010500-
...SAN LUIS VALLEY/SANGRE DE CRISTO MOUNTAINS...

CITY           SKY/WX    TMP DP  RH WIND       PRES   REMARKS
ALAMOSA        CLOUDY    60  51  72 CALM      30.45R
LA VETA PASS   MOCLDY    52  43  71 MISG      30.65R
SAGUACHE       MOCLDY    57  54  88 NE6       30.50R
$$

COZ035-036-038>040-010500-
...NORTHERN COLORADO FRONT RANGE...

CITY           SKY/WX    TMP DP  RH WIND       PRES   REMARKS
DENVER INTL AP PTCLDY    71  50  47 S13       30.26R
DMNS CITY PARK   N/A     73  51  46 SE10      30.26R
AURORA         PTCLDY    70  52  52 S8        30.29R
FRONT RANGE AP NOT AVBL
ERIE MUNI ARPT CLEAR     76  51  41 S6        30.23R
BOULDER MUN AP CLEAR     73  50  43 S3        30.23R
CENTENNIAL     PTCLDY    68  52  56 S8        30.29R
BROOMFIELD     NOT AVBL
FORT COLLINS   PTCLDY    75  52  43 S5        30.22R
LONGMONT       PTCLDY    71  55  56 CALM      30.24R
$$

COZ041-046-047-076>085-087-088-010500-
...PIKES PEAK/PALMER DIVIDE AND SOUTHERN FOOTHILLS...

CITY           SKY/WX    TMP DP  RH WIND       PRES   REMARKS
COLO. SPRINGS  MOCLDY    67  52  58 E8        30.36R
A. F. ACADEMY  MOCLDY    67  51  55 E2        30.37R
ELLICOTT       MOCLDY   N/A N/A N/A CALM      30.36R
FALCON         MOCLDY    62  52  69 W5        30.42R
FORT CARSON    CLOUDY    68  53  57 SW14      30.32R
LIMON          PTCLDY    65  53  65 SE7       30.30R
MONUMENT HILL  PTCLDY    59  52  77 S10       30.40R
TRINIDAD       MOCLDY    71  56  58 SW3       30.29R
$$

COZ042>045-048>051-090-091-010500-
...NORTHEAST COLORADO...

CITY           SKY/WX    TMP DP  RH WIND       PRES   REMARKS
GREELEY ARPT   PTCLDY    72  54  53 SE5       30.21R
AKRON          CLEAR     74  56  53 S12       30.23R
BURLINGTON     CLEAR     69  57  65 S8        30.24R
WRAY           CLEAR     76  57  52 S7        30.18R
STERLING       CLEAR     72  52  49 S5        30.17R
HOLYOKE        NOT AVBL
FORT MORGAN    CLEAR     74  51  44 SE9       30.22R
$$

COZ086-089-092>099-010500-
...SOUTHEAST COLORADO...

CITY           SKY/WX    TMP DP  RH WIND       PRES   REMARKS
PUEBLO         CLOUDY    72  60  66 NW7       30.25R
LA JUNTA       PTCLDY    77  61  57 E8        30.21R
LAMAR          CLEAR     72  60  66 SE8       30.18R
SPRINGFIELD      N/A     72  65  78 SE12      30.24R
$$


USA.gov is the U.S. government's official web portal to all federal, state and local government web resources and services.